Weather History for FBMN - December, 2013

Change the Weather History Date:

Monday, December 30, 2013

  Actual Average Record
Temperature  
Mean Temperature 74 °F -  
Max Temperature 77 °F 88 °F 98 °F (2004)
Min Temperature 69 °F 69 °F 64 °F (2007)
Cooling Degree Days 8    
Growing Degree Days 24 (Base 50)    
Moisture  
Dew Point 69 °F    
Average Humidity 83    
Maximum Humidity 94    
Minimum Humidity 67    
Precipitation  
Precipitation 0.00 in - - ()
Sea Level Pressure  
Sea Level Pressure 29.91 in    
Wind  
Wind Speed 5 mph ()    
Max Wind Speed 12 mph    
Max Gust Speed -    
Visibility 6.1 miles    
Events Rain    
Averages and records for this station are not official NWS values.
T = Trace of Precipitation, MM = Missing Value Source: Averaged Metar Reports

Daily Weather History Graph

Daily Weather History Graph

Search for Another Location

Airport or City:

Trip Planner

Search our weather history database for the weather conditions in past years. The results will help you decide how hot, cold, wet, or windy it might be!

Date:

Astronomy

Dec. 30, 2013 Rise Set
Actual Time 5:49 AM CAT 7:08 PM CAT
Civil Twilight 5:24 AM CAT 7:33 PM CAT
Nautical Twilight 4:55 AM CAT 8:02 PM CAT
Astronomical Twilight 4:25 AM CAT 8:32 PM CAT
Moon 3:38 AM CAT 5:06 PM CAT
Length of Visible Light 14h 08m
Length of Day
13h 19m
Waning Crescent, 6% of the Moon is Illuminated
Dec 30
Waning Crescent
Jan 1
New
Jan 8
First Quarter
Jan 16
Full
Jan 24
Last Quarter

Hourly Weather History & Observations

Time (CAT) Temp. Dew Point Humidity Pressure Visibility Wind Dir Wind Speed Gust Speed Precip Events Conditions
12:00 AM 73.4 °F 68.0 °F 83% 29.92 in 6.2 mi Variable 1.2 mph - N/A   Partly Cloudy
2:00 AM 74 °F 70 °F 82%  in 6 mi South 4.6 mph - -   Partly Cloudy
2:00 AM 75.2 °F 69.8 °F 83% 29.89 in 6.2 mi South 4.6 mph - N/A   Scattered Clouds
3:00 AM 73.4 °F 68.0 °F 83% 29.89 in 6.2 mi South 5.8 mph - N/A   Scattered Clouds
4:00 AM 71.6 °F 68.0 °F 88% 29.86 in 6.2 mi SE 4.6 mph - N/A   Partly Cloudy
5:00 AM 71 °F 69 °F 91%  in 6 mi SE 3.5 mph - -   Partly Cloudy
5:00 AM 71.6 °F 69.8 °F 94% 29.89 in 6.2 mi SE 3.5 mph - N/A   Scattered Clouds
6:00 AM 71.6 °F 68.0 °F 88% 29.89 in 6.2 mi ESE 5.8 mph - N/A   Partly Cloudy
7:00 AM 71.6 °F 68.0 °F 88% 29.92 in 6.2 mi ESE 10.4 mph - N/A   Partly Cloudy
8:00 AM 73 °F 67 °F 77%  in 6 mi East 9.2 mph - -   Partly Cloudy
8:00 AM 73.4 °F 68.0 °F 83% 29.95 in 6.2 mi East 9.2 mph - N/A   Partly Cloudy
9:00 AM 75.2 °F 68.0 °F 78% 29.95 in 6.2 mi SE 9.2 mph - N/A   Partly Cloudy
10:00 AM 75.2 °F 68.0 °F 78% 29.95 in 6.2 mi ESE 9.2 mph - N/A   Partly Cloudy
11:00 AM 78 °F 69 °F 67%  in 6 mi ESE 4.6 mph - -   Partly Cloudy
11:00 AM 78.8 °F 69.8 °F 74% 29.95 in 6.2 mi ESE 4.6 mph - N/A   Partly Cloudy
12:00 PM 78.8 °F 68.0 °F 69% 29.92 in 6.2 mi SSE 9.2 mph - N/A   Scattered Clouds
1:00 PM 77.0 °F 69.8 °F 78% 29.89 in 6.2 mi SE 11.5 mph - N/A   Scattered Clouds
4:00 PM 75.2 °F 69.8 °F 83% 29.86 in 6.2 mi ESE 8.1 mph - N/A   Scattered Clouds
5:00 PM 77 °F 69 °F 69%  in 6 mi SE 8.1 mph - -   Partly Cloudy
5:00 PM 77.0 °F 68.0 °F 74% 29.89 in 6.2 mi SE 8.1 mph - N/A   Scattered Clouds
6:00 PM 71.6 °F 68.0 °F 88% 29.86 in 6.2 mi SSE 3.5 mph - N/A   Scattered Clouds
7:00 PM 71.6 °F 68.0 °F 88% 29.89 in 6.2 mi Variable 2.3 mph - N/A   Scattered Clouds
8:00 PM 72 °F 69 °F 86%  in 6 mi South 3.5 mph - -   Partly Cloudy
8:00 PM 71.6 °F 69.8 °F 94% 29.89 in 6.2 mi South 3.5 mph - N/A   Scattered Clouds
9:00 PM 71.6 °F 69.8 °F 94% 29.92 in 6.2 mi Variable 2.3 mph - N/A   Mostly Cloudy
11:00 PM 70 °F 67 °F 86%  in 6 mi SE 8.1 mph - -   Partly Cloudy
11:00 PM 69.8 °F 66.2 °F 88% 29.98 in 6.2 mi SE 8.1 mph - N/A Rain Light Rain